Location: Pardubice
(50.0330°N, 15.7830°E)
Time: 00:26:52
(UTC+01:00)

ISS - Pass Details

Date: 05 October 2020
Orbit: 417 x 420 km, 51.6° (Epoch: 30 October)

Event Time Altitude Azimuth Distance (km) Brightness Sun altitude
Rises 19:33:48 0° 286° (WNW) 2,369 2.0 -11.7°
Reaches altitude 10° 19:36:05 10° 274° (W) 1,502 0.6 -12.1°
Maximum altitude 19:38:59 27° 215° (SW) 840 -1.9 -12.6°
Drops below altitude 10° 19:41:53 10° 155° (SSE) 1,496 -1.3 -13.0°
Enters shadow 19:42:03 - 154° (SSE) 1,556 -1.2 -13.0°
